QPF
0.00 0.00 0.00 0.00 0.00 0.00 0.00 0.00 0.00 0.00 0.00 0.00 0.03 0.06 0.04 0.01 0.00 0.00 0.00 0.00 0.00 0.00 0.00 0.00 0.00 0.00 0.00 0.00 0.00 0.00 0.00 0.00
0.00 0.00 0.00 0.00 0.00 0.00 0.00 0.00 0.00 0.00 0.00 0.00 0.01 0.02 0.02 0.01 0.00 0.00 0.00 0.00 0.00 0.00 0.00 0.00 0.00 0.00 0.00 0.00 0.00 0.00 0.00 0.00
0.00 0.00 0.00 0.00 0.00 0.00 0.00 0.00 0.00 0.00 0.00 0.00 0.00 0.00 0.00 0.01 0.00 0.00 0.00 0.00 0.00 0.00 0.00 0.00 0.00 0.00 0.00 0.00 0.00 0.00 0.00 0.00
0.00 0.00 0.00 0.00 0.00 0.00 0.00 0.00 0.00 0.00 0.00 0.00 0.00 0.00 0.00 0.00 0.00 0.00 0.00 0.00 0.00 0.00 0.00 0.00 0.00 0.00 0.00 0.00 0.00 0.00 0.00 0.00
0.00 0.00 0.00 0.00 0.00 0.00 0.00 0.00 0.00 0.00 0.00 0.00 0.00 0.00 0.00 0.00 0.00 0.00 0.00 0.00 0.00 0.00 0.00 0.00 0.00 0.00 0.00 0.00 0.00 0.00 0.00 0.00
0.00 0.00 0.00 0.00 0.00 0.00 0.00 0.00 0.00 0.00 0.00 0.00 0.00 0.00 0.00 0.00 0.00 0.00 0.00 0.00 0.00 0.00 0.00 0.00 0.00 0.00 0.00 0.00 0.00 0.00 0.00 0.00
0.00 0.00 0.00 0.00 0.00 0.00 0.00 0.00 0.00 0.00 0.00 0.00 0.00 0.00 0.00 0.00 0.00 0.00 0.00 0.00 0.00 0.00 0.00 0.00 0.00 0.00 0.00 0.00 0.00 0.00 0.00 0.01
0.00 0.00 0.00 0.00 0.00 0.00 0.00 0.00 0.00 0.00 0.00 0.00 0.00 0.00 0.00 0.00 0.00 0.00 0.00 0.00 0.00 0.00 0.00 0.00 0.00 0.01 0.00 0.00 0.00 0.00 0.01 0.01
0.00 0.00 0.00 0.00 0.00 0.00 0.00 0.00 0.00 0.00 0.00 0.00 0.00 0.00 0.00 0.00 0.00 0.00 0.00 0.00 0.00 0.00 0.00 0.00 0.00 0.00 0.00 0.01 0.02 0.02 0.01 0.01
0.00 0.00 0.00 0.00 0.00 0.00 0.00 0.00 0.00 0.00 0.00 0.00 0.00 0.00 0.00 0.00 0.00 0.00 0.00 0.00 0.00 0.00 0.00 0.00 0.00 0.00 0.00 0.00 0.00 0.01 0.01 0.01
0.00 0.00 0.00 0.00 0.00 0.00 0.00 0.00 0.00 0.00 0.00 0.00 0.00 0.00 0.00 0.00 0.00 0.00 0.00 0.00 0.00 0.00 0.00 0.00 0.00 0.01 0.01 0.00 0.00 0.00 0.00 0.00
0.00 0.00 0.00 0.00 0.00 0.00 0.00 0.00 0.00 0.00 0.00 0.00 0.00 0.00 0.00 0.00 0.00 0.00 0.00 0.00 0.00 0.00 0.00 0.00 0.00 0.00 0.00 0.00 0.00 0.00 0.00 0.00
0.00 0.00 0.00 0.00 0.00 0.00 0.00 0.00 0.00 0.00 0.00 0.00 0.00 0.00 0.00 0.00 0.00 0.00 0.00 0.00 0.00 0.00 0.00 0.00 0.00 0.00 0.00 0.00 0.00 0.00 0.00 0.00
0.00 0.00 0.00 0.00 0.00 0.00 0.00 0.00 0.00 0.00 0.00 0.00 0.00 0.00 0.00 0.00 0.00 0.00 0.00 0.00 0.00 0.00 0.00 0.00 0.00 0.00 0.00 0.00 0.00 0.00 0.00 0.00
0.01 0.02 0.01 0.00 0.00 0.01 0.01 0.01 0.01 0.00 0.00 0.00 0.00 0.00 0.00 0.00 0.00 0.00 0.00 0.00 0.00 0.00 0.00 0.00 0.00 0.00 0.00 0.00 0.00 0.00 0.00 0.00
0.01 0.02 0.02 0.04 0.03 0.01 0.00 0.00 0.01 0.01 0.01 0.00 0.00 0.00 0.00 0.00 0.00 0.00 0.00 0.00 0.00 0.00 0.00 0.00 0.00 0.00 0.00 0.00 0.00 0.00 0.00 0.00
0.00 0.00 0.00 0.01 0.05 0.08 0.07 0.06 0.04 0.03 0.01 0.02 0.02 0.02 0.01 0.01 0.00 0.00 0.00 0.00 0.00 0.00 0.00 0.00 0.00 0.00 0.00 0.00 0.00 0.00 0.00 0.00
0.00 0.00 0.00 0.00 0.00 0.00 0.01 0.02 0.01 0.03 0.07 0.07 0.05 0.04 0.02 0.01 0.02 0.01 0.01 0.00 0.00 0.00 0.00 0.00 0.00 0.00 0.00 0.00 0.00 0.00 0.00 0.00
0.00 0.00 0.00 0.00 0.00 0.00 0.00 0.00 0.00 0.00 0.02 0.03 0.02 0.02 0.02 0.03 0.02 0.01 0.02 0.02 0.02 0.01 0.01 0.00 0.00 0.00 0.00 0.00 0.00 0.00 0.00 0.00
MSLP
1002.90 1004.18 1005.02 1005.47 1006.19 1006.80 1007.37 1008.04 1008.43 1008.74 1008.86 1009.10 1009.19 1009.29 1009.66 1009.98 1010.51 1011.19 1011.78 1012.48 1013.30 1013.83 1014.65 1015.14 1015.57 1016.74 1017.64 1017.91 1018.44 1018.96 1019.12 1019.69
1003.24 1004.41 1004.87 1005.65 1006.34 1006.77 1007.18 1007.82 1008.41 1008.71 1008.98 1009.15 1009.35 1009.48 1009.74 1010.07 1010.76 1011.37 1011.64 1012.41 1013.00 1013.63 1014.21 1015.18 1015.71 1016.44 1016.99 1017.62 1018.24 1018.80 1019.39 1019.60
1003.49 1004.38 1004.87 1005.56 1006.19 1006.58 1007.01 1007.56 1008.29 1008.58 1008.85 1009.09 1009.22 1009.54 1010.00 1010.20 1010.89 1011.54 1011.82 1012.46 1012.95 1013.39 1014.08 1014.87 1015.84 1016.43 1016.86 1017.24 1017.81 1018.79 1019.15 1019.39
1003.15 1004.01 1004.56 1005.34 1005.97 1006.27 1006.66 1007.26 1008.05 1008.55 1008.83 1009.16 1009.64 1010.09 1010.40 1010.62 1011.09 1011.69 1012.13 1012.65 1013.02 1013.44 1014.04 1014.79 1015.44 1016.00 1016.53 1017.13 1017.49 1017.93 1018.69 1019.38
1001.96 1003.36 1004.24 1004.82 1005.54 1006.01 1006.40 1006.94 1007.61 1008.35 1008.81 1009.10 1009.51 1009.96 1010.44 1010.69 1010.84 1011.54 1012.30 1012.79 1013.10 1013.51 1014.10 1014.65 1015.09 1015.69 1016.08 1016.76 1017.38 1017.64 1017.96 1019.15
1001.18 1002.23 1003.35 1004.59 1005.31 1005.81 1006.17 1006.82 1007.40 1007.93 1008.50 1009.00 1009.48 1009.94 1010.36 1010.83 1011.32 1011.92 1012.41 1012.81 1013.12 1013.31 1013.81 1014.32 1014.82 1015.34 1015.71 1016.22 1017.14 1017.73 1017.77 1018.61
1000.70 1002.22 1003.36 1004.43 1005.07 1005.79 1006.08 1006.67 1007.20 1007.71 1008.21 1008.71 1009.17 1009.71 1010.29 1010.92 1011.34 1011.86 1012.25 1012.54 1013.02 1013.32 1013.72 1014.20 1014.69 1015.17 1015.56 1016.25 1017.12 1017.50 1017.34 1017.73
1000.28 1001.66 1002.92 1003.96 1004.56 1005.40 1005.85 1006.47 1006.92 1007.42 1007.89 1008.29 1008.83 1009.33 1009.94 1010.48 1011.01 1011.41 1011.84 1012.32 1012.83 1013.09 1013.55 1014.13 1014.54 1014.86 1015.38 1016.19 1016.72 1016.74 1017.00 1017.43
999.30 1000.62 1001.95 1003.07 1003.95 1004.87 1005.31 1006.11 1006.71 1007.23 1007.72 1008.17 1008.60 1008.97 1009.48 1009.93 1010.43 1011.02 1011.30 1011.72 1012.18 1012.55 1013.07 1013.56 1013.99 1014.56 1015.16 1015.77 1016.01 1016.28 1016.70 1017.04
998.84 1000.33 1001.31 1002.35 1003.32 1004.08 1004.51 1005.42 1006.26 1006.91 1007.37 1007.90 1008.37 1008.77 1009.15 1009.68 1009.94 1010.40 1010.92 1011.35 1011.80 1012.32 1012.84 1013.32 1013.74 1014.26 1014.68 1015.01 1015.55 1015.96 1016.41 1016.73
998.55 999.67 1000.75 1001.81 1002.76 1003.58 1004.15 1004.63 1005.47 1006.36 1007.02 1007.44 1007.92 1008.36 1008.80 1009.34 1009.80 1010.15 1010.54 1010.95 1011.36 1011.88 1012.37 1012.78 1013.29 1013.64 1014.04 1014.51 1015.07 1015.46 1015.93 1016.16
997.88 999.12 1000.25 1001.42 1002.55 1003.26 1003.89 1004.44 1005.05 1005.69 1006.47 1006.99 1007.43 1007.90 1008.36 1008.89 1009.43 1009.79 1010.20 1010.72 1011.11 1011.45 1011.87 1012.22 1012.58 1012.91 1013.36 1013.86 1014.22 1014.56 1014.93 1015.23
997.58 998.71 999.99 1001.23 1002.20 1003.01 1003.53 1004.12 1004.68 1005.20 1005.79 1006.37 1006.79 1007.30 1007.81 1008.27 1008.63 1009.18 1009.83 1010.32 1010.71 1011.08 1011.47 1011.82 1012.21 1012.50 1012.81 1013.07 1013.42 1013.85 1014.23 1014.45
998.47 999.41 1000.16 1000.86 1001.69 1002.43 1003.03 1003.50 1003.90 1004.49 1005.15 1005.74 1006.31 1006.71 1007.12 1007.62 1008.12 1008.64 1009.15 1009.67 1010.15 1010.55 1010.86 1011.22 1011.50 1011.82 1012.21 1012.47 1012.75 1013.03 1013.19 1013.44
999.85 1000.66 1001.14 1001.76 1002.63 1003.31 1003.59 1003.74 1003.93 1004.13 1004.65 1005.29 1005.67 1006.12 1006.56 1006.98 1007.33 1007.81 1008.35 1008.90 1009.23 1009.61 1010.01 1010.38 1010.66 1011.01 1011.30 1011.62 1011.97 1012.20 1012.34 1012.49
1001.57 1002.20 1002.61 1002.79 1003.15 1003.42 1003.38 1003.69 1004.09 1004.56 1005.11 1005.16 1004.94 1005.40 1005.82 1006.23 1006.60 1006.87 1007.26 1007.72 1008.08 1008.52 1009.03 1009.35 1009.70 1010.01 1010.21 1010.56 1010.90 1011.18 1011.43 1011.56
1003.33 1003.86 1004.19 1004.32 1004.36 1004.24 1004.24 1004.04 1004.11 1003.91 1004.48 1005.08 1005.83 1006.27 1006.58 1006.40 1006.32 1006.33 1006.46 1006.77 1007.10 1007.54 1007.78 1008.19 1008.55 1008.63 1008.84 1009.31 1009.78 1010.09 1010.29 1010.41
1005.10 1005.66 1006.06 1006.14 1006.06 1005.67 1005.45 1005.44 1005.01 1004.43 1004.68 1005.09 1005.39 1005.56 1005.68 1005.87 1005.97 1006.12 1006.20 1006.37 1006.63 1006.69 1006.90 1007.20 1007.35 1007.44 1007.75 1008.27 1008.88 1009.19 1009.13 1008.96
1007.05 1007.49 1007.53 1007.71 1007.58 1006.81 1006.86 1006.66 1006.49 1006.30 1006.27 1006.23 1006.36 1006.46 1006.35 1006.06 1005.65 1005.70 1005.74 1005.88 1005.85 1005.92 1006.05 1006.14 1006.45 1006.32 1006.85 1007.29 1007.59 1007.88 1007.67 1007.45
Thickness
5694 5682 5676 5674 5667 5661 5654 5645 5637 5632 5632 5630 5628 5626 5627 5628 5628 5626 5629 5628 5626 5626 5623 5625 5624 5615 5609 5613 5612 5609 5609 5609
5687 5677 5673 5668 5663 5658 5652 5643 5637 5632 5629 5626 5624 5622 5623 5626 5625 5625 5627 5626 5625 5625 5623 5619 5617 5614 5612 5610 5609 5606 5602 5603
5678 5672 5670 5665 5661 5657 5651 5643 5636 5632 5629 5625 5624 5620 5619 5622 5623 5621 5623 5622 5622 5623 5621 5617 5610 5608 5609 5609 5608 5600 5600 5600
5675 5671 5668 5663 5659 5657 5653 5644 5636 5630 5627 5624 5619 5616 5613 5615 5617 5616 5616 5616 5617 5617 5615 5611 5608 5609 5608 5604 5605 5604 5599 5595
5682 5673 5666 5665 5660 5656 5653 5646 5639 5631 5626 5623 5620 5616 5614 5614 5616 5614 5612 5610 5611 5610 5608 5607 5608 5607 5606 5602 5599 5599 5598 5590
5683 5678 5671 5663 5659 5655 5652 5646 5640 5635 5628 5623 5619 5616 5615 5612 5610 5608 5608 5607 5606 5607 5607 5606 5605 5604 5601 5602 5594 5592 5592 5587
5684 5675 5668 5661 5657 5652 5650 5645 5640 5636 5631 5626 5623 5619 5613 5608 5609 5607 5606 5607 5605 5605 5604 5602 5599 5598 5598 5593 5588 5587 5591 5591
5683 5674 5667 5662 5657 5652 5649 5644 5640 5636 5632 5629 5624 5619 5614 5610 5608 5607 5607 5606 5604 5605 5602 5597 5597 5597 5593 5587 5588 5590 5590 5589
5689 5680 5672 5666 5660 5653 5651 5646 5640 5635 5631 5627 5623 5620 5615 5611 5609 5608 5609 5609 5607 5606 5603 5601 5598 5593 5592 5589 5590 5590 5588 5585
5688 5679 5674 5668 5663 5656 5654 5649 5643 5637 5632 5628 5624 5621 5618 5612 5612 5612 5611 5610 5608 5603 5600 5597 5595 5593 5592 5589 5586 5584 5583 5581
5687 5682 5675 5669 5664 5658 5654 5652 5647 5641 5634 5630 5625 5623 5620 5616 5614 5612 5610 5608 5606 5602 5600 5599 5597 5596 5593 5588 5582 5581 5580 5579
5689 5683 5675 5667 5661 5657 5653 5651 5648 5643 5637 5633 5628 5624 5621 5619 5616 5614 5611 5607 5606 5605 5603 5601 5599 5597 5595 5591 5587 5585 5584 5582
5688 5682 5673 5664 5659 5655 5652 5649 5647 5644 5640 5635 5632 5628 5624 5622 5620 5617 5611 5608 5606 5602 5601 5600 5598 5597 5594 5591 5589 5586 5583 5582
5674 5671 5667 5663 5660 5656 5652 5650 5649 5647 5642 5637 5632 5630 5628 5625 5621 5618 5614 5610 5606 5603 5601 5599 5598 5596 5592 5591 5589 5586 5585 5583
5657 5654 5655 5652 5647 5642 5641 5643 5643 5643 5641 5637 5634 5630 5627 5625 5624 5620 5616 5613 5610 5607 5604 5602 5599 5595 5593 5591 5588 5586 5585 5583
5637 5637 5638 5639 5639 5639 5641 5639 5638 5637 5632 5632 5634 5632 5629 5627 5625 5623 5621 5618 5615 5611 5606 5604 5600 5598 5597 5593 5589 5586 5584 5582
5617 5617 5618 5620 5624 5627 5628 5631 5632 5639 5636 5630 5623 5617 5615 5618 5621 5621 5621 5619 5616 5613 5612 5608 5605 5605 5602 5595 5592 5589 5587 5585
5595 5592 5592 5596 5600 5607 5610 5612 5617 5624 5624 5622 5621 5621 5619 5618 5618 5616 5617 5614 5612 5613 5611 5607 5607 5607 5602 5595 5587 5585 5584 5585
5571 5570 5571 5571 5578 5588 5590 5594 5597 5600 5601 5603 5602 5602 5606 5608 5614 5613 5612 5610 5611 5610 5609 5608 5605 5608 5599 5592 5587 5585 5586 5588